TimeCDT,TemperatureF,Dew PointF,Humidity,Sea Level PressureIn,VisibilityMPH,Wind Direction,Wind SpeedMPH,Gust SpeedMPH,PrecipitationIn,Events,Conditions,WindDirDegrees,DateUTC
12:15 AM,74.7,72.1,92,30.07,10.0,Calm,Calm,-,N/A,,Clear,0,2013-08-23 05:15:00
12:35 AM,74.3,72.1,93,30.07,10.0,Calm,Calm,-,N/A,,Clear,0,2013-08-23 05:35:00
12:55 AM,74.1,72.3,94,30.07,10.0,Calm,Calm,-,N/A,,Clear,0,2013-08-23 05:55:00
1:15 AM,74.1,72.7,95,30.07,7.0,Calm,Calm,-,N/A,,Clear,0,2013-08-23 06:15:00
1:35 AM,73.8,72.5,96,30.07,7.0,Calm,Calm,-,N/A,,Clear,0,2013-08-23 06:35:00
1:55 AM,73.4,72.3,96,30.06,7.0,Calm,Calm,-,N/A,,Clear,0,2013-08-23 06:55:00
2:15 AM,73.4,72.5,97,30.06,7.0,Calm,Calm,-,N/A,,Clear,0,2013-08-23 07:15:00
2:35 AM,73.0,72.3,98,30.07,5.0,Calm,Calm,-,N/A,,Clear,0,2013-08-23 07:35:00
2:55 AM,72.5,72.0,98,30.06,4.0,Calm,Calm,-,N/A,,Clear,0,2013-08-23 07:55:00
3:15 AM,72.3,71.8,98,30.07,1.2,Calm,Calm,-,N/A,,Mist,0,2013-08-23 08:15:00
3:35 AM,72.0,71.6,99,30.07,1.0,Calm,Calm,-,N/A,,Mist,0,2013-08-23 08:35:00
3:55 AM,72.1,72.0,99,30.08,2.5,Calm,Calm,-,N/A,,Clear,0,2013-08-23 08:55:00
4:15 AM,71.8,71.6,99,30.08,0.8,Calm,Calm,-,N/A,,Mist,0,2013-08-23 09:15:00
4:35 AM,71.4,71.1,99,30.08,3.0,Calm,Calm,-,N/A,,Clear,0,2013-08-23 09:35:00
4:55 AM,70.5,70.3,99,30.08,1.0,Calm,Calm,-,N/A,,Mist,0,2013-08-23 09:55:00
5:15 AM,70.2,70.0,99,30.08,3.0,Calm,Calm,-,N/A,,Clear,0,2013-08-23 10:15:00
5:35 AM,70.0,70.0,100,30.08,1.0,Calm,Calm,-,N/A,,Mist,0,2013-08-23 10:35:00
5:55 AM,69.8,69.6,99,30.09,3.0,Calm,Calm,-,N/A,,Clear,0,2013-08-23 10:55:00
6:15 AM,69.3,69.1,99,30.09,5.0,Calm,Calm,-,N/A,,Clear,0,2013-08-23 11:15:00
6:35 AM,69.4,69.1,99,30.09,4.0,Calm,Calm,-,N/A,,Clear,0,2013-08-23 11:35:00
6:55 AM,69.1,69.1,100,30.09,2.0,Calm,Calm,-,N/A,,Clear,0,2013-08-23 11:55:00
7:15 AM,69.4,69.3,99,30.09,4.0,Calm,Calm,-,N/A,,Clear,0,2013-08-23 12:15:00
7:35 AM,69.8,69.6,99,30.09,5.0,Calm,Calm,-,N/A,,Clear,0,2013-08-23 12:35:00
7:55 AM,72.0,71.8,99,30.09,5.0,SSE,3.5,-,N/A,,Clear,150,2013-08-23 12:55:00
8:15 AM,73.4,72.3,96,30.10,7.0,Calm,Calm,-,N/A,,Clear,0,2013-08-23 13:15:00
8:35 AM,74.5,72.0,92,30.11,10.0,Calm,Calm,-,N/A,,Clear,0,2013-08-23 13:35:00
8:55 AM,76.5,72.3,87,30.10,10.0,Calm,Calm,-,N/A,,Clear,0,2013-08-23 13:55:00
9:15 AM,78.8,71.6,78,30.11,10.0,Calm,Calm,-,N/A,,Clear,0,2013-08-23 14:15:00
9:35 AM,80.8,71.8,74,30.11,10.0,Calm,Calm,-,N/A,,Clear,0,2013-08-23 14:35:00
9:55 AM,82.0,70.3,68,30.11,10.0,Calm,Calm,-,N/A,,Clear,0,2013-08-23 14:55:00
10:15 AM,83.5,70.2,64,30.11,10.0,Calm,Calm,-,N/A,,Clear,0,2013-08-23 15:15:00
10:35 AM,84.6,69.4,60,30.11,10.0,Calm,Calm,-,N/A,,Clear,0,2013-08-23 15:35:00
10:55 AM,85.1,68.9,58,30.11,10.0,Calm,Calm,-,N/A,,Clear,0,2013-08-23 15:55:00
11:15 AM,86.0,69.4,58,30.11,10.0,Calm,Calm,-,N/A,,Scattered Clouds,0,2013-08-23 16:15:00
11:35 AM,86.7,70.0,57,30.11,10.0,SE,3.5,-,N/A,,Scattered Clouds,130,2013-08-23 16:35:00
11:55 AM,87.4,68.7,54,30.11,10.0,Calm,Calm,-,N/A,,Clear,0,2013-08-23 16:55:00
12:15 PM,88.2,67.3,50,30.10,10.0,SE,3.5,-,N/A,,Clear,140,2013-08-23 17:15:00
12:35 PM,88.3,65.5,47,30.10,10.0,Calm,Calm,-,N/A,,Clear,0,2013-08-23 17:35:00
12:55 PM,89.6,65.7,45,30.10,10.0,Calm,Calm,-,N/A,,Scattered Clouds,0,2013-08-23 17:55:00
1:15 PM,89.2,67.3,48,30.09,10.0,NW,3.5,-,N/A,,Clear,320,2013-08-23 18:15:00
1:35 PM,89.4,67.1,48,30.08,10.0,South,5.8,-,N/A,,Scattered Clouds,170,2013-08-23 18:35:00
1:55 PM,90.3,65.1,43,30.08,10.0,South,3.5,-,N/A,,Mostly Cloudy,180,2013-08-23 18:55:00
2:15 PM,90.3,64.9,43,30.07,10.0,Calm,Calm,-,N/A,,Scattered Clouds,0,2013-08-23 19:15:00
2:35 PM,90.5,65.5,43,30.06,10.0,South,5.8,-,N/A,,Scattered Clouds,170,2013-08-23 19:35:00
2:55 PM,91.2,65.8,43,30.06,10.0,South,4.6,-,N/A,,Scattered Clouds,190,2013-08-23 19:55:00
3:15 PM,90.9,65.5,43,30.06,10.0,South,4.6,-,N/A,,Scattered Clouds,180,2013-08-23 20:15:00
3:35 PM,90.7,65.3,43,30.05,10.0,South,5.8,-,N/A,,Clear,170,2013-08-23 20:35:00
3:55 PM,91.0,64.8,42,30.05,10.0,Calm,Calm,-,N/A,,Clear,0,2013-08-23 20:55:00
4:15 PM,91.4,65.5,42,30.04,10.0,East,3.5,-,N/A,,Clear,80,2013-08-23 21:15:00
4:35 PM,91.8,63.5,39,30.04,10.0,Calm,Calm,-,N/A,,Clear,0,2013-08-23 21:35:00
4:55 PM,91.2,63.3,39,30.03,10.0,Calm,Calm,-,N/A,,Clear,0,2013-08-23 21:55:00
5:15 PM,90.7,64.2,41,30.03,10.0,SSW,3.5,-,N/A,,Clear,210,2013-08-23 22:15:00
5:35 PM,90.7,64.4,42,30.03,10.0,Calm,Calm,-,N/A,,Clear,0,2013-08-23 22:35:00
5:55 PM,90.5,63.5,41,30.03,10.0,Calm,Calm,-,N/A,,Clear,0,2013-08-23 22:55:00
6:15 PM,90.1,64.8,43,30.03,10.0,ENE,5.8,-,N/A,,Clear,70,2013-08-23 23:15:00
6:35 PM,88.9,64.6,44,30.03,10.0,ENE,3.5,-,N/A,,Clear,70,2013-08-23 23:35:00
6:55 PM,88.0,66.2,48,30.03,10.0,ENE,3.5,-,N/A,,Clear,70,2013-08-23 23:55:00
7:15 PM,86.5,67.1,52,30.04,10.0,Calm,Calm,-,N/A,,Scattered Clouds,0,2013-08-24 00:15:00
7:35 PM,85.8,68.0,55,30.04,10.0,Calm,Calm,-,N/A,,Clear,0,2013-08-24 00:35:00
7:55 PM,83.7,68.0,59,30.04,10.0,Calm,Calm,-,N/A,,Scattered Clouds,0,2013-08-24 00:55:00
8:15 PM,82.8,68.5,62,30.05,10.0,Calm,Calm,-,N/A,,Scattered Clouds,0,2013-08-24 01:15:00
8:35 PM,82.4,68.2,62,30.05,10.0,Calm,Calm,-,N/A,,Mostly Cloudy,0,2013-08-24 01:35:00
8:55 PM,81.5,68.4,64,30.05,10.0,East,4.6,-,N/A,,Mostly Cloudy,100,2013-08-24 01:55:00
9:15 PM,81.7,68.9,65,30.06,10.0,East,4.6,-,N/A,,Mostly Cloudy,80,2013-08-24 02:15:00
9:35 PM,81.5,69.3,66,30.07,10.0,ESE,3.5,-,N/A,,Mostly Cloudy,110,2013-08-24 02:35:00
9:55 PM,81.1,69.3,67,30.07,10.0,ESE,6.9,-,N/A,,Overcast,120,2013-08-24 02:55:00
10:15 PM,81.0,69.1,67,30.08,10.0,SE,5.8,-,N/A,,Scattered Clouds,130,2013-08-24 03:15:00
10:35 PM,79.9,69.1,69,30.08,10.0,ESE,6.9,-,N/A,,Clear,120,2013-08-24 03:35:00
10:55 PM,79.0,69.1,72,30.08,10.0,ESE,5.8,-,N/A,,Clear,110,2013-08-24 03:55:00
11:15 PM,78.1,69.1,74,30.07,10.0,ESE,5.8,-,N/A,,Clear,110,2013-08-24 04:15:00
11:35 PM,77.4,68.9,75,30.07,10.0,ESE,6.9,-,N/A,,Clear,110,2013-08-24 04:35:00
11:55 PM,76.8,68.9,76,30.07,10.0,ESE,4.6,-,N/A,,Clear,110,2013-08-24 04:55:00